Wind_Speed
19 19 20 20 20 20 20 19 19 19 19 18 17 16 16 16 16 16 14 14 13 11 10 8 6 4 3 3 4 4 4 5 6 9 9 7 5 4 6 8 9 8 8 6 5 6 7 6 7 6 5 6 7 8 8 9 9 9 8 6 5 5 4 6 7 5 4 5 6 6 5 5 5 8 8 8 7 7 9 8 7 8 9 9 9 9 8 8
17 19 20 20 20 20 20 19 19 19 19 18 17 17 16 16 16 15 15 13 12 12 10 9 7 5 4 4 4 4 4 4 6 9 8 6 4 3 5 7 6 7 7 6 7 7 6 7 7 7 8 8 8 8 8 9 8 7 6 5 5 5 5 7 8 5 4 5 6 6 5 5 6 8 8 7 7 8 9 9 9 10 10 10 10 9 9 9
16 17 19 19 19 20 20 20 19 19 19 18 17 17 16 16 16 15 15 13 13 12 11 9 8 6 5 5 4 4 4 5 7 8 7 6 5 4 5 5 6 7 8 8 8 7 8 10 9 7 7 8 8 8 9 9 7 6 6 5 5 6 6 8 8 5 5 6 6 6 6 6 7 8 8 7 8 9 9 10 11 11 11 10 9 10 10 9
15 16 17 18 19 19 20 19 19 19 19 18 17 17 16 16 16 16 15 13 13 12 11 10 8 6 5 5 5 5 5 7 7 5 5 6 6 6 7 6 7 8 10 9 8 9 10 10 9 6 7 9 8 7 9 9 7 6 6 6 5 6 6 7 8 6 6 6 6 7 8 7 8 8 8 7 8 9 10 10 10 10 11 10 10 10 11 10
15 15 16 18 18 19 19 19 19 19 19 18 17 17 16 16 16 16 15 13 13 12 11 10 9 7 5 5 5 6 6 7 6 4 5 7 7 8 8 8 9 9 10 10 10 10 9 7 7 8 9 9 8 7 8 7 6 6 6 6 5 6 6 7 8 6 6 6 6 8 9 8 9 9 8 8 9 10 11 10 9 10 11 10 11 11 11 11
15 15 16 17 18 18 18 19 19 18 18 18 17 16 16 16 16 16 15 13 13 12 11 10 9 7 5 5 5 6 8 8 6 6 7 8 8 9 9 10 10 10 10 12 13 11 9 7 8 8 8 8 8 7 7 6 6 7 7 6 5 5 6 7 8 7 6 6 7 8 8 9 9 9 9 9 9 11 11 10 10 10 10 11 12 12 12 13
15 15 15 16 17 17 18 18 18 18 18 17 17 16 16 16 16 16 15 13 12 11 11 10 9 7 5 6 6 8 9 8 6 8 9 8 9 11 12 12 12 12 14 15 13 12 11 10 8 6 7 9 10 8 7 7 7 7 8 8 6 5 7 8 8 7 7 7 7 8 8 9 9 9 10 9 10 12 11 10 11 11 11 12 13 13 14 14
15 15 15 15 16 17 17 18 18 18 18 17 16 16 16 16 16 16 15 13 12 11 11 10 9 7 5 6 7 10 10 8 9 11 11 12 12 13 13 14 14 14 15 14 11 12 12 9 7 7 8 10 10 10 10 10 8 8 9 8 7 7 8 9 8 8 7 7 8 9 10 10 10 10 10 10 11 12 11 11 12 12 13 13 14 15 14 14
16 15 15 15 15 16 16 17 17 17 17 17 16 16 16 16 16 16 14 13 12 11 11 10 9 7 6 6 7 10 10 10 12 13 14 15 15 15 15 15 15 14 12 11 10 12 11 9 8 9 10 9 10 11 11 10 9 10 10 10 9 9 10 10 10 9 8 9 9 10 12 11 10 12 11 11 12 11 11 12 12 13 14 15 15 15 15 15
16 16 15 15 15 15 16 16 17 17 17 16 16 16 16 16 16 16 14 13 12 11 11 10 9 8 8 8 8 11 11 12 15 17 17 17 16 15 13 13 12 11 11 11 11 11 10 9 8 9 10 10 11 11 10 9 10 11 10 11 12 11 10 9 10 10 10 10 9 10 13 11 10 13 13 12 12 11 11 13 13 13 14 15 16 15 15 15
17 16 15 15 15 15 15 15 16 17 17 16 16 16 16 16 16 16 14 13 12 11 11 10 10 10 9 10 11 12 12 13 17 18 17 15 14 13 12 12 13 13 13 13 12 11 11 11 8 9 10 10 11 11 10 10 11 12 12 13 14 12 10 8 10 10 11 11 9 12 14 10 9 12 14 13 12 12 12 14 14 14 15 15 15 15 15 15
16 16 16 15 15 15 14 15 15 16 16 15 16 16 16 15 15 16 15 13 12 11 10 10 10 10 11 11 11 12 13 15 17 18 15 13 14 14 14 16 15 14 14 13 12 12 13 13 10 9 9 8 10 11 11 11 13 13 13 13 13 13 11 10 10 10 12 12 11 13 12 9 9 12 14 14 13 13 13 15 15 14 14 15 15 16 15 15
16 16 16 15 15 15 14 14 14 15 15 15 15 15 16 15 15 16 15 14 13 11 10 9 10 10 11 10 10 13 16 18 18 16 15 16 17 16 16 17 14 12 12 12 11 11 13 13 10 9 9 10 11 11 11 13 14 13 12 12 12 11 12 11 10 10 11 12 12 13 12 9 10 12 13 13 14 14 13 14 14 14 15 15 16 16 15 15
15 15 16 15 15 15 14 13 14 14 15 15 15 15 16 16 15 16 15 15 13 12 10 9 10 9 10 10 11 16 19 19 17 15 17 20 19 15 15 15 13 11 12 11 11 12 13 12 11 11 12 13 13 13 12 12 12 12 12 12 10 10 12 11 11 10 10 12 12 12 12 11 10 12 12 13 14 14 13 13 14 15 16 16 16 15 15 14
15 15 15 15 15 15 14 13 13 14 14 15 15 15 16 16 16 16 16 15 13 13 11 10 10 10 12 12 12 17 20 19 17 17 18 20 18 15 13 14 14 12 10 9 12 13 13 13 12 13 14 13 13 13 13 12 11 11 12 12 9 9 11 11 11 11 9 10 12 10 11 12 11 12 12 13 13 13 12 13 15 16 16 16 15 15 14 13
14 14 15 15 15 15 14 13 12 13 14 14 14 14 15 15 15 16 17 16 15 14 11 11 11 13 15 13 14 18 19 18 17 16 17 18 19 15 12 14 16 15 10 10 14 14 14 14 13 13 13 12 12 12 13 12 12 12 12 11 10 9 11 11 10 11 9 10 11 10 10 12 11 12 12 12 12 12 13 14 15 16 16 15 14 14 13 13
14 14 14 14 15 14 14 13 12 12 13 14 14 14 14 15 14 15 17 16 15 15 12 11 12 14 14 13 15 17 19 18 16 15 17 18 19 16 14 15 17 16 13 13 12 13 12 10 10 11 11 10 10 11 12 12 12 13 13 11 10 10 11 11 10 11 10 10 11 10 10 11 11 11 11 11 11 12 13 14 15 15 15 14 14 13 13 12
13 13 14 14 14 14 14 13 12 11 12 13 13 13 13 14 14 14 16 16 15 14 13 10 13 15 14 13 15 16 19 19 15 15 16 16 18 18 17 16 17 17 15 13 12 12 10 9 10 10 9 8 9 10 10 10 11 13 13 12 11 11 11 11 10 10 10 10 11 10 10 10 11 10 10 10 11 12 13 12 14 14 14 14 13 12 12 12
13 13 13 14 14 14 14 13 12 11 11 12 12 12 12 13 13 13 14 16 14 13 13 10 11 16 15 15 15 15 18 17 14 13 13 15 19 20 19 18 18 16 14 13 12 12 10 10 11 9 7 8 9 10 10 10 11 13 13 12 11 11 11 11 10 10 10 11 11 11 10 9 9 10 11 12 12 12 12 11 13 14 13 13 12 12 11 11
13 13 13 14 14 14 13 13 12 11 10 11 11 10 12 13 13 13 13 14 14 13 13 10 10 14 15 16 16 15 15 15 14 13 12 16 20 20 18 18 18 14 11 11 12 12 11 10 9 7 8 9 10 12 12 12 13 13 12 12 12 11 11 11 11 11 11 11 12 10 9 9 10 10 11 12 12 13 12 11 13 13 12 11 11 11 11 10
13 13 13 13 13 13 13 12 12 10 10 10 10 10 11 12 12 12 12 12 13 13 13 11 11 13 14 16 16 14 13 13 12 12 12 16 19 18 17 17 17 13 9 10 12 11 11 10 9 9 10 9 10 13 13 12 12 11 11 11 13 13 11 11 11 11 11 11 11 9 9 10 10 10 11 11 11 12 12 11 12 13 12 11 10 9 9 9
13 13 13 13 13 13 13 12 11 10 9 8 9 9 10 11 12 12 11 11 12 13 13 13 13 13 14 15 15 13 11 9 10 12 12 15 17 16 16 17 16 12 8 9 12 11 11 11 10 12 12 10 11 12 12 9 8 9 9 10 13 13 11 10 10 10 10 10 10 10 9 10 10 10 10 11 11 11 11 11 11 12 11 10 9 8 8 7
13 13 13 12 13 12 12 11 10 9 8 7 8 8 8 9 10 10 10 10 10 12 14 15 14 13 14 15 15 14 12 9 10 13 14 16 16 14 15 16 14 12 9 11 14 13 13 12 12 15 16 14 13 13 11 8 8 9 10 11 12 12 10 10 10 11 11 10 9 9 9 9 9 9 10 11 11 11 11 10 11 11 10 9 8 7 6 6
13 13 13 12 12 12 12 11 10 9 7 6 6 6 7 8 8 7 9 10 11 13 14 14 13 13 13 13 13 13 14 13 12 13 14 16 14 11 13 14 12 12 11 13 16 15 15 16 15 17 18 15 14 13 10 10 11 11 11 11 12 11 10 9 10 10 10 9 8 8 9 8 8 8 10 10 10 11 11 11 11 10 10 9 7 6 6 5
13 13 13 12 12 12 11 10 10 9 7 5 5 5 5 6 6 6 8 9 10 11 12 13 14 13 11 11 12 12 14 13 11 13 14 14 11 9 11 12 13 13 11 14 17 16 18 20 18 16 16 14 13 12 11 11 13 13 11 10 10 10 9 7 8 9 9 8 7 8 8 8 8 8 9 10 10 11 11 10 10 10 9 8 6 6 5 5
14 14 13 12 12 11 11 10 9 9 8 6 4 4 4 4 5 5 6 7 9 8 9 12 14 12 9 9 11 10 12 11 10 12 13 12 10 8 9 10 12 12 12 16 18 17 18 21 20 16 14 14 13 12 11 12 13 13 12 12 12 11 8 6 7 8 8 7 7 7 7 7 8 8 8 8 10 11 11 11 10 10 8 6 5 5 5 4
14 14 13 12 12 11 10 10 9 8 8 6 4 3 3 3 4 4 4 5 8 9 9 11 12 10 6 7 9 8 8 9 9 11 11 11 10 8 7 7 9 13 15 19 19 16 18 20 20 16 13 13 12 11 11 11 12 11 12 14 15 13 10 7 8 9 9 7 6 7 7 7 8 8 7 8 9 11 12 12 11 8 7 6 5 4 4 4
15 15 14 13 12 11 10 10 9 8 7 6 4 2 2 2 3 3 4 5 7 8 9 10 10 8 5 6 7 6 7 8 9 10 11 12 10 7 8 6 8 14 18 19 17 15 17 18 18 14 11 10 10 10 11 11 11 10 11 14 15 14 11 9 9 9 9 8 7 6 6 7 7 6 7 7 9 10 11 11 10 8 6 5 4 3 3 3
16 15 14 13 12 11 10 10 9 8 7 7 4 2 2 2 2 3 3 4 6 6 6 8 8 7 6 7 8 8 9 8 9 10 11 11 7 6 7 6 10 16 16 15 15 16 16 15 15 15 10 11 11 9 10 10 10 10 11 13 14 13 11 9 9 8 7 7 6 6 6 6 6 6 6 6 8 9 10 9 9 8 6 4 2 1 1 1
17 16 15 14 13 12 10 10 9 7 7 7 5 2 2 2 1 2 2 3 3 4 5 6 7 7 8 9 9 10 10 9 10 11 10 9 6 5 6 7 10 14 12 11 13 15 14 12 13 14 10 11 11 9 9 9 9 11 12 14 14 12 11 10 8 7 6 6 4 4 4 4 4 5 5 5 7 8 8 8 7 7 5 3 2 0 0 1
18 17 16 15 14 12 11 10 9 7 7 8 6 3 3 3 2 1 3 2 1 2 4 5 5 7 10 11 7 7 10 11 10 8 6 7 7 5 5 8 9 10 9 10 12 14 14 13 12 13 11 11 11 9 9 8 8 9 11 11 11 11 12 11 8 7 7 5 5 4 4 3 3 3 3 3 4 5 5 6 6 6 4 2 1 1 2 2
18 18 17 16 15 13 11 10 9 8 7 8 7 5 4 4 4 3 4 4 3 2 4 6 6 7 11 11 7 7 10 12 10 7 5 7 9 4 3 6 7 7 8 8 11 13 14 13 12 13 11 11 12 9 6 6 7 7 7 9 9 9 11 11 9 8 7 4 5 5 3 3 2 2 2 1 2 2 2 3 5 5 3 1 1 2 2 3
19 19 18 17 16 14 12 11 10 9 7 8 9 7 5 6 6 5 6 7 6 5 7 9 9 8 10 10 9 9 9 9 6 7 6 7 9 7 3 5 7 8 8 8 11 14 13 12 13 12 10 10 11 9 6 5 7 5 4 7 9 7 7 9 9 9 7 5 5 5 4 3 2 2 2 2 1 1 2 1 1 3 3 1 2 4 4 5
21 20 19 18 17 16 14 12 11 10 8 9 10 9 6 6 7 6 7 8 7 7 7 9 9 7 6 6 6 5 5 7 3 4 6 5 8 10 8 5 7 10 9 9 10 12 10 9 10 9 9 10 9 9 9 7 7 6 4 6 8 7 7 8 9 8 7 7 7 7 6 5 2 1 2 1 1 2 3 4 3 3 2 1 3 5 5 6
23 21 20 19 18 17 15 13 11 10 9 10 11 11 8 7 7 8 7 6 7 8 6 7 7 7 4 3 4 4 3 5 4 1 6 7 4 7 8 5 8 9 7 6 7 9 9 7 7 9 9 9 7 8 8 6 5 6 5 5 6 7 8 8 9 10 9 8 8 8 9 8 6 4 4 3 3 3 4 5 4 4 4 2 3 4 5 7
25 22 20 19 19 19 16 14 12 11 10 11 13 13 10 8 7 8 6 2 5 9 7 6 6 7 6 6 8 6 4 4 4 3 7 6 2 3 5 2 6 5 3 5 6 7 10 9 6 8 6 7 6 5 6 5 5 5 4 4 3 4 8 9 8 9 10 9 7 8 10 10 9 9 9 8 7 6 5 5 5 5 6 5 4 5 7 9
26 24 21 20 21 20 18 16 14 12 11 12 14 14 12 10 9 10 9 5 5 8 7 5 6 8 8 9 11 9 7 5 5 1 8 7 5 4 4 2 1 1 4 6 7 8 12 7 5 5 3 6 7 4 2 4 5 5 5 5 3 4 7 8 8 8 9 9 8 8 8 9 9 10 10 11 11 9 6 6 6 6 6 7 7 7 8 11
28 25 22 21 22 21 19 17 15 14 13 14 15 14 13 13 11 12 11 8 8 9 8 7 7 8 8 9 13 13 13 8 4 3 6 8 7 5 3 5 6 4 5 2 2 9 11 5 1 1 3 3 5 4 1 3 5 7 8 7 4 6 6 6 7 8 8 8 8 7 6 7 8 9 10 12 12 9 6 6 8 8 8 8 8 6 8 10
29 27 24 23 23 21 20 18 17 15 14 15 16 16 16 15 12 11 11 9 9 10 10 9 7 8 9 10 13 16 15 10 9 9 6 5 5 5 5 6 7 7 9 6 4 8 10 7 6 4 4 5 4 4 4 5 6 8 8 7 5 6 6 6 7 8 8 8 8 7 5 7 9 9 10 12 11 9 7 7 9 10 10 9 7 6 7 9
30 28 25 25 24 22 21 20 18 17 16 16 17 17 17 16 15 13 11 10 11 12 11 9 9 11 12 11 11 16 17 13 12 12 8 6 5 3 7 8 8 10 13 10 8 8 7 6 8 7 5 5 4 4 5 6 7 8 9 8 6 6 5 6 8 9 8 8 9 8 6 7 9 9 9 10 10 9 8 7 8 9 10 10 9 7 8 9
31 29 26 27 25 23 22 21 20 19 18 18 18 19 18 18 18 16 13 12 12 13 13 11 11 12 13 12 12 14 16 14 12 12 10 8 6 2 7 9 7 11 16 14 10 9 8 8 10 7 5 5 4 2 3 6 8 7 6 6 7 6 6 8 10 11 10 8 8 9 7 7 8 8 8 9 9 8 8 8 8 9 10 11 10 9 9 9
32 30 27 28 28 25 23 22 21 20 20 20 21 21 20 19 20 17 14 13 13 14 14 13 12 12 12 13 14 14 14 15 15 15 14 9 6 7 10 8 5 9 15 17 15 14 13 14 13 9 7 8 7 2 2 6 7 4 2 5 8 8 7 8 9 11 10 9 9 10 9 9 9 10 11 10 9 9 9 10 10 10 10 10 11 10 9 9
33 32 30 31 30 27 25 23 22 21 23 24 23 22 21 19 19 18 14 13 13 14 15 14 14 14 14 15 16 15 14 15 18 19 17 13 8 11 16 14 10 9 11 14 16 17 17 16 14 12 10 10 8 4 3 4 5 4 1 4 8 10 10 9 8 10 11 10 11 12 13 13 11 12 13 11 10 11 12 12 10 9 9 10 10 10 9 8
35 34 32 32 32 29 26 25 23 23 25 24 22 21 21 19 18 19 17 15 15 15 15 14 14 16 17 17 18 18 17 16 20 21 18 16 14 15 18 17 15 13 12 13 13 14 15 14 13 13 12 12 11 8 7 6 5 4 3 3 7 10 11 10 10 11 13 12 12 14 15 15 14 13 13 12 10 10 11 11 10 9 9 9 9 10 10 9
38 36 34 34 33 31 28 26 25 24 24 24 22 21 22 21 21 20 20 19 18 18 16 14 15 16 17 17 18 20 20 18 20 22 18 17 20 20 19 18 16 14 14 14 13 12 12 12 13 13 13 14 14 12 12 11 8 6 5 6 8 10 11 12 12 13 14 14 15 15 15 15 15 15 15 13 11 11 11 10 9 9 9 8 9 10 10 10
41 39 37 35 35 33 30 28 26 24 25 25 25 24 23 23 23 21 22 22 22 21 18 17 16 16 16 17 18 21 22 19 20 24 22 21 24 24 21 19 19 18 16 15 14 11 10 11 11 12 12 14 14 14 15 15 13 11 10 10 11 12 13 14 14 14 14 16 17 16 15 16 17 16 16 15 14 13 11 9 9 10 10 9 10 11 11 10
42 42 40 37 35 34 31 29 26 25 26 27 27 26 24 23 23 22 23 25 24 23 21 19 18 17 18 19 19 21 23 20 19 23 24 23 24 25 25 23 22 21 20 19 17 15 13 12 12 12 13 14 15 16 17 18 18 16 14 13 14 16 16 16 16 17 17 18 19 17 16 17 17 16 16 17 17 15 12 9 9 11 11 11 11 11 11 11
43 43 42 38 36 35 33 29 27 27 27 27 26 26 25 23 23 24 25 26 26 25 24 22 20 19 19 20 20 21 22 21 20 22 22 22 22 24 26 26 24 23 22 21 20 20 19 16 14 12 11 11 12 14 17 19 20 19 18 17 16 17 18 17 17 18 19 19 19 19 17 16 16 17 18 18 17 15 12 11 11 11 11 12 13 13 12 11
44 44 43 39 36 35 34 31 30 29 29 28 27 27 26 24 24 25 26 27 27 26 26 25 23 22 21 22 23 22 21 21 22 21 21 22 22 22 25 28 27 25 24 23 22 21 21 21 20 16 13 12 12 13 16 18 18 17 17 17 18 17 17 16 15 16 18 19 20 20 19 18 17 17 17 17 15 13 12 12 12 12 11 11 12 13 13 12
45 44 43 40 36 36 35 34 32 31 31 30 28 27 27 26 26 28 28 28 28 28 28 27 26 24 23 24 24 22 20 19 20 20 19 20 22 22 25 28 28 27 26 25 23 22 22 23 23 21 20 19 17 16 17 18 18 16 15 15 17 17 16 16 16 17 19 19 20 20 20 19 18 17 15 15 15 13 12 12 11 11 12 12 11 12 12 11
45 44 43 39 36 36 37 36 34 33 32 31 29 28 29 28 28 30 30 29 30 31 30 28 27 26 24 24 25 22 19 18 18 19 19 20 22 22 23 26 27 27 27 25 23 22 22 23 25 24 23 22 20 19 19 19 18 16 16 17 18 18 17 16 16 18 19 19 19 20 19 19 19 16 14 14 13 12 13 12 9 8 10 12 11 10 10 10
44 43 42 39 36 37 38 37 36 35 33 32 30 29 29 29 30 31 31 30 31 33 33 30 28 26 25 25 24 22 20 19 18 18 19 20 22 22 21 23 24 25 25 24 24 23 22 22 24 24 23 20 19 20 20 20 17 16 17 19 19 19 18 16 14 15 17 18 19 18 19 19 18 15 14 12 11 11 11 10 8 8 9 11 11 10 10 10
Wind_Direction
5 6 8 8 6 5 8 12 16 18 19 19 19 19 17 14 13 13 11 10 10 11 12 12 10 1 344 338 335 334 344 5 33 44 42 41 49 57 49 50 48 41 42 29 7 1 8 11 353 352 337 326 350 8 21 18 16 15 5 18 36 29 42 64 65 68 89 95 98 97 85 85 94 92 89 90 99 107 108 112 110 103 96 88 85 83 81 82
5 4 7 8 6 5 5 9 15 18 19 19 19 19 17 14 12 11 11 10 9 10 11 11 11 4 348 340 334 331 340 2 37 44 41 39 40 54 55 53 47 35 33 20 8 355 353 7 355 354 0 0 8 8 16 14 7 12 7 15 41 48 58 70 75 81 97 104 105 101 95 97 101 95 93 103 112 108 107 108 106 103 99 92 84 84 86 88
5 4 6 8 7 5 5 7 12 17 20 20 19 19 17 14 11 11 10 9 8 10 11 14 16 10 355 346 336 327 341 11 37 41 40 43 47 63 67 59 44 29 26 17 5 349 348 3 356 345 0 13 20 11 12 13 14 26 16 15 46 66 73 79 86 88 92 98 104 105 101 99 101 98 98 109 110 103 103 102 102 103 102 97 89 88 92 95
5 4 6 7 7 6 5 6 10 16 20 21 19 19 17 14 11 10 10 9 9 10 12 16 21 18 3 352 345 335 350 21 31 31 43 50 56 68 71 61 40 24 22 12 1 360 355 359 5 8 18 27 27 15 15 23 32 41 31 28 49 67 73 82 87 83 88 93 97 99 97 101 103 100 97 97 95 94 96 97 100 102 101 99 96 95 96 96
3 3 5 7 8 8 6 5 8 15 20 21 20 19 17 14 11 10 10 10 11 12 14 19 25 24 13 4 1 358 13 34 33 36 48 48 56 67 68 60 41 24 18 12 11 14 3 3 25 28 29 34 26 14 27 40 37 39 49 47 50 62 65 75 82 81 81 81 89 93 96 103 104 100 95 93 94 93 95 101 105 100 99 101 99 98 97 96
2 2 4 6 8 9 8 6 7 13 19 22 21 19 17 14 11 10 11 13 14 15 17 22 26 29 23 6 5 22 38 44 41 50 51 46 54 65 63 48 35 24 17 16 15 12 11 24 37 39 37 33 24 17 38 56 41 37 52 53 51 68 73 74 80 85 84 82 88 93 99 103 101 100 97 98 102 99 99 105 107 102 102 104 102 101 99 98
1 0 2 5 8 10 9 7 6 11 18 21 22 20 18 15 12 11 13 17 19 19 21 24 27 31 23 1 11 34 41 44 53 58 49 42 50 58 54 38 28 22 17 15 13 13 22 30 33 45 45 36 34 33 43 52 50 51 55 55 55 67 77 76 78 86 91 93 94 94 96 96 96 97 99 104 105 101 103 106 106 106 106 105 103 102 101 100
1 359 1 3 6 10 10 8 6 9 16 21 23 22 19 15 14 13 15 19 23 24 25 27 29 30 18 4 24 41 43 52 63 58 48 43 48 54 48 36 29 22 16 14 16 26 32 27 23 39 46 44 47 51 50 45 50 64 66 65 70 78 77 71 71 81 90 91 91 90 87 90 97 99 99 103 102 102 106 106 106 107 107 105 103 102 100 99
0 358 0 1 4 9 11 9 7 8 15 20 23 24 20 17 15 15 17 22 25 27 29 32 29 25 25 27 42 50 51 63 67 57 50 48 49 51 43 32 27 21 17 19 25 36 37 26 24 43 56 57 60 63 59 54 57 64 69 75 80 83 77 67 68 78 88 84 82 88 87 88 99 101 98 98 99 102 106 105 106 108 108 105 103 101 98 97
1 357 359 359 1 7 11 10 8 8 13 18 23 25 22 18 17 17 19 24 26 30 34 34 28 23 33 48 60 57 51 61 67 57 50 50 50 53 45 32 29 25 23 24 29 38 39 35 35 47 58 62 66 68 64 63 68 68 70 76 77 76 76 77 81 87 93 87 86 93 88 86 97 102 99 95 96 103 109 109 107 107 106 104 102 100 99 98
1 358 358 359 359 5 11 11 9 8 11 16 22 25 24 21 20 19 20 25 28 32 37 34 27 24 40 57 65 67 62 62 66 60 55 57 58 60 54 40 32 28 27 23 26 36 36 33 39 49 56 61 63 66 65 65 72 71 68 74 77 77 78 84 90 93 96 93 97 95 86 86 100 103 100 98 101 106 111 110 107 106 103 102 101 101 101 100
1 358 358 359 357 1 10 11 9 9 9 14 20 25 26 22 22 22 20 24 27 32 37 34 26 25 42 58 68 76 75 69 65 62 63 65 58 51 45 39 32 31 36 29 24 35 38 33 35 47 57 61 59 60 62 64 69 71 70 74 80 82 80 80 85 91 96 98 101 96 89 92 99 98 99 102 105 107 109 109 108 107 103 103 103 104 103 99
360 359 358 359 356 357 6 11 11 10 7 11 18 24 26 24 23 24 22 22 26 30 35 35 26 28 45 57 73 78 75 69 63 65 71 65 50 36 27 31 33 38 46 38 29 37 41 37 40 53 61 61 59 54 51 54 61 67 72 73 74 80 81 81 85 87 93 98 98 96 95 95 95 96 101 106 107 106 108 109 109 108 107 107 107 106 102 99
357 358 358 359 357 354 1 11 13 10 8 10 17 24 27 26 24 24 23 21 24 26 32 39 29 32 50 56 70 76 73 68 60 63 69 64 52 34 18 21 31 43 46 36 31 37 37 35 40 50 54 55 56 55 52 55 60 66 72 74 76 84 87 88 90 89 93 98 97 97 99 96 94 97 103 108 108 108 110 111 110 110 111 111 108 105 102 99
355 357 357 357 357 353 355 8 14 11 9 10 15 23 28 28 26 25 23 21 21 22 35 54 48 53 60 56 67 74 72 69 61 61 66 64 55 41 24 23 27 34 40 34 32 39 40 36 35 37 43 47 50 54 57 62 67 72 74 76 79 84 88 87 88 88 90 97 95 95 99 99 98 100 105 108 108 109 112 113 112 113 113 111 108 105 103 101
352 354 355 356 357 353 352 4 15 13 11 10 12 21 29 31 28 26 24 22 22 21 41 72 73 73 71 63 67 73 74 72 67 69 73 66 53 44 39 39 34 30 44 53 43 44 43 36 32 33 36 37 43 51 54 56 61 70 75 75 72 74 80 79 80 83 83 89 91 94 98 99 100 102 105 106 107 108 111 114 114 113 112 110 108 105 103 99
348 351 353 355 355 354 351 359 13 16 13 12 12 19 29 33 30 28 24 24 24 20 36 74 83 80 79 74 72 77 84 79 74 76 77 64 49 45 45 47 46 46 61 69 56 53 50 42 41 41 36 31 37 47 51 50 51 59 66 71 69 69 75 75 77 82 81 81 86 92 96 97 97 98 102 105 107 109 111 115 116 114 112 109 107 105 102 97
344 347 350 353 354 354 351 355 9 17 15 15 14 16 27 34 32 30 26 26 28 22 28 61 86 89 87 84 79 81 85 82 78 78 76 66 55 50 47 51 57 58 62 62 50 46 43 44 48 41 34 34 36 43 50 50 51 56 60 65 67 68 73 74 77 83 84 84 86 88 88 92 94 94 101 107 111 111 112 117 117 114 112 109 107 104 100 96
339 342 346 349 353 354 352 352 2 14 18 17 16 17 25 32 33 31 28 29 32 29 30 45 80 96 98 91 83 78 79 85 89 85 79 72 64 57 54 58 62 58 54 53 48 42 33 35 40 31 27 37 39 45 51 49 50 53 56 62 68 70 72 71 73 78 79 79 80 82 83 88 93 97 105 109 112 112 112 120 119 113 110 108 107 104 98 93
336 339 341 345 350 353 353 352 356 10 18 17 15 17 23 30 33 32 29 31 36 37 43 51 73 95 102 94 83 75 76 88 101 98 85 76 70 64 61 64 67 62 54 54 53 48 40 36 40 41 37 38 44 49 48 45 47 49 50 61 68 67 68 69 68 69 69 71 73 78 89 96 96 97 103 108 113 116 120 125 118 111 108 107 105 101 97 95
335 336 337 340 346 350 353 352 354 4 15 17 15 17 24 27 29 34 30 31 39 42 52 65 70 79 89 88 81 78 79 86 103 105 90 80 74 67 65 65 65 62 56 59 57 52 47 42 46 51 46 45 52 57 57 53 56 59 56 63 70 66 64 68 72 71 70 72 75 78 87 94 93 94 100 106 113 119 122 122 115 111 109 107 104 99 97 99
334 334 334 336 341 347 351 351 353 359 10 18 16 17 26 29 27 30 32 31 38 44 51 61 66 69 75 79 77 78 79 78 95 99 85 77 73 68 65 63 61 56 51 65 62 55 50 45 49 57 59 59 56 62 71 70 72 79 75 71 74 73 69 69 73 72 68 68 74 78 80 89 98 104 108 111 116 117 115 116 114 112 111 109 104 97 95 97
333 333 332 332 336 342 347 349 350 353 5 16 17 17 27 36 30 26 32 34 40 46 48 54 62 65 68 75 77 80 87 91 94 92 82 73 68 64 62 62 65 57 45 60 59 51 47 44 51 61 63 59 53 61 72 69 62 67 70 67 65 67 67 69 69 70 72 71 77 83 82 89 101 112 116 115 119 118 115 118 116 113 111 106 99 95 94 96
331 331 331 330 331 337 342 345 344 346 1 14 17 19 27 44 41 29 31 34 40 45 46 55 66 67 67 77 82 83 91 95 94 92 85 74 67 66 66 65 69 60 46 55 55 47 49 48 48 55 59 59 61 65 67 64 61 58 59 59 54 52 56 66 70 76 84 82 83 92 92 95 104 116 122 119 118 117 117 119 116 111 106 102 100 99 96 91
328 329 329 327 326 331 336 340 339 338 350 7 21 22 25 47 53 44 35 35 43 48 52 59 64 66 65 74 84 86 84 84 89 92 82 71 69 71 69 62 61 59 52 57 53 46 49 48 42 44 53 61 65 63 58 58 61 58 52 46 42 38 39 56 67 76 87 86 85 89 93 101 109 115 120 118 115 115 115 112 107 103 100 103 103 99 95 89
323 325 326 325 322 325 330 334 335 332 337 357 24 23 20 44 59 58 47 43 49 51 58 62 62 64 62 67 78 81 79 80 86 86 75 67 70 75 74 67 63 62 58 57 50 41 45 44 38 36 46 59 64 62 57 54 54 53 43 32 29 23 14 31 54 64 72 78 86 90 95 104 106 111 114 115 115 112 106 99 96 97 100 107 106 99 95 91
317 319 322 322 318 320 323 327 331 329 329 345 12 20 11 29 57 62 50 43 46 43 51 62 63 62 59 63 64 67 84 88 81 77 70 62 62 76 88 78 65 67 63 54 44 35 38 40 36 30 38 56 67 66 60 53 47 45 42 35 32 27 19 27 41 51 60 64 76 86 97 103 100 108 115 115 116 110 101 96 97 101 104 104 102 100 95 86
310 314 317 318 316 315 317 321 326 323 320 330 354 12 349 357 48 57 43 45 49 47 50 59 62 57 55 62 62 79 108 100 83 79 68 56 52 72 93 83 61 66 64 53 43 40 38 36 33 27 35 57 63 65 63 54 44 39 44 41 33 29 31 34 32 41 57 66 75 80 86 97 101 112 122 123 122 112 102 101 105 106 104 99 95 88 84 79
303 308 312 314 313 311 310 315 318 315 311 315 332 347 318 331 26 34 46 56 55 55 54 57 64 57 59 76 80 94 113 107 91 82 64 52 53 73 81 77 62 61 61 54 53 52 41 35 34 27 41 68 63 60 60 54 49 43 42 40 30 25 30 33 28 34 51 64 83 97 91 97 111 121 131 132 125 115 106 106 111 110 107 108 112 85 56 20
297 302 306 308 309 307 305 306 309 309 302 301 310 305 284 290 339 31 77 84 52 62 67 65 69 58 63 89 100 101 102 95 86 80 68 55 54 61 52 50 64 67 60 55 60 58 45 41 44 35 46 73 66 58 54 45 46 50 47 42 33 24 28 32 28 28 38 49 77 120 117 107 114 119 134 141 128 124 122 118 114 112 113 118 133 171 272 282
293 297 300 303 304 303 301 298 300 302 291 289 296 284 274 276 252 121 111 124 67 89 94 76 66 68 83 98 113 113 93 75 66 70 75 61 50 56 46 36 62 85 71 56 61 58 47 46 49 42 48 70 70 65 57 39 34 51 56 49 36 25 28 34 28 22 29 47 74 111 137 133 113 101 113 148 142 139 143 131 114 106 102 103 143 255 282 306
288 293 295 297 299 299 298 293 292 294 283 277 281 275 266 264 246 209 187 190 197 174 130 106 86 98 117 119 111 101 84 65 48 31 32 46 33 29 63 22 31 75 69 57 56 47 46 53 48 39 44 63 69 68 65 38 32 55 63 47 37 29 33 40 37 30 33 47 63 79 105 111 108 93 79 132 172 167 173 152 119 105 95 86 282 286 309 330
283 288 291 293 295 294 293 289 287 287 278 267 268 267 256 261 264 243 230 225 202 187 166 135 110 112 139 144 128 110 96 82 50 4 1 24 10 353 15 23 28 52 49 47 46 31 33 51 48 40 45 58 61 60 63 39 27 47 59 40 37 33 41 53 54 49 48 46 42 43 42 51 94 166 136 134 218 267 253 241 99 88 94 101 298 317 331 330
278 283 287 291 290 288 288 285 281 279 272 261 261 261 251 253 263 259 260 257 232 212 181 141 120 118 141 157 147 115 105 117 98 345 333 337 343 344 346 14 45 47 36 34 32 18 12 32 48 55 55 53 51 46 46 38 28 31 25 29 39 42 42 46 50 52 50 49 48 39 28 28 25 218 136 111 342 332 305 313 349 3 43 89 313 331 332 317
274 278 282 287 286 283 283 280 277 273 265 258 256 256 250 244 249 252 265 277 269 254 205 151 136 130 123 160 148 56 58 126 122 284 297 307 327 345 340 6 49 44 28 16 17 12 356 2 56 81 62 48 50 44 40 33 36 44 27 22 45 54 45 33 34 44 49 56 54 42 35 33 29 34 60 46 354 337 312 319 344 352 5 9 324 333 321 305
271 273 276 281 282 280 279 276 274 270 262 255 252 253 251 242 240 244 246 264 282 262 218 165 154 150 145 157 142 94 89 117 84 201 246 287 304 299 313 357 59 46 328 333 10 358 328 338 55 94 69 48 57 56 50 35 36 54 43 39 70 59 44 40 35 39 53 62 54 43 41 37 34 42 55 47 17 355 325 320 337 350 359 358 345 338 318 308
268 269 271 275 276 277 277 275 273 267 259 253 251 252 249 242 237 235 229 206 227 244 217 175 182 189 181 163 149 131 138 132 50 175 231 263 275 270 279 271 28 355 289 332 359 317 307 334 76 111 68 53 69 80 71 33 30 40 22 15 46 35 30 40 35 29 48 59 45 37 40 37 35 39 46 48 35 17 354 337 339 348 355 351 351 345 320 309
266 267 267 269 271 274 275 273 270 264 257 252 251 250 247 243 240 240 237 222 214 222 212 198 198 204 199 174 162 150 142 142 123 156 219 253 271 298 307 271 273 254 253 298 335 289 293 305 38 36 346 16 66 88 92 13 24 29 5 346 18 34 18 19 24 26 40 48 37 26 30 36 36 28 25 37 41 28 8 359 5 11 5 349 343 334 315 307
263 264 264 265 267 270 271 269 267 263 255 250 249 248 246 245 243 244 252 250 237 228 216 203 189 193 203 192 176 163 150 159 183 177 189 228 250 311 322 281 268 245 242 237 227 273 290 287 282 308 316 317 0 28 26 19 18 19 357 329 355 23 5 351 6 23 30 30 22 12 15 24 24 17 14 24 32 27 14 13 18 19 11 360 347 327 314 309
260 261 261 262 263 266 268 267 265 261 254 248 246 246 246 247 243 235 239 251 251 244 234 211 187 194 212 213 197 182 173 181 191 176 171 194 200 312 320 292 266 246 249 248 231 250 278 288 282 284 288 304 334 359 14 8 360 358 346 332 345 355 339 331 343 359 3 358 358 357 356 1 4 7 11 13 14 17 23 26 22 15 8 5 2 347 330 318
257 258 259 261 261 260 263 264 262 259 256 250 245 243 241 243 244 235 227 231 239 242 242 229 204 203 219 225 217 203 192 193 188 172 184 205 181 192 289 289 269 248 251 255 252 247 252 268 275 272 271 280 288 336 8 345 340 343 334 335 348 341 323 317 328 342 338 327 337 342 341 348 351 353 1 7 2 4 29 34 16 11 9 5 4 0 348 330
255 256 256 257 257 256 257 259 259 258 254 248 243 241 238 238 242 240 229 224 229 234 238 237 222 210 219 229 229 224 211 201 194 187 195 200 176 199 232 243 244 248 250 251 256 261 262 267 269 259 253 263 269 288 333 318 321 319 321 352 344 324 308 305 320 338 331 319 325 328 331 342 347 343 346 357 356 355 14 17 2 2 7 4 360 355 352 341
252 253 253 255 256 256 257 257 257 254 250 247 245 246 244 240 241 242 237 229 232 236 236 237 234 222 219 223 228 232 227 210 204 202 197 188 186 216 225 222 220 236 249 248 250 260 269 273 271 262 251 250 255 261 262 275 294 286 292 359 331 308 299 301 317 330 322 320 327 328 331 339 341 339 338 344 346 348 356 357 352 354 356 357 356 348 344 341
251 251 251 253 256 256 255 255 254 252 251 252 252 252 250 244 239 239 237 234 236 240 240 241 241 236 231 227 224 227 229 218 209 209 203 192 198 222 233 233 227 223 234 244 245 252 263 269 268 262 251 249 257 265 260 251 249 258 268 291 293 290 292 301 311 313 313 321 329 328 329 331 334 338 338 337 337 343 350 346 341 342 342 348 355 348 339 331
250 250 249 251 254 253 251 251 251 250 252 252 249 245 243 239 234 232 233 235 236 237 238 240 241 241 241 239 234 233 235 226 212 214 217 208 207 223 236 237 238 236 234 238 243 250 257 260 262 262 258 259 262 263 266 266 256 250 260 266 273 279 283 290 299 302 307 313 316 318 321 323 330 338 342 342 337 339 343 336 329 334 339 346 349 341 334 325
249 249 248 249 251 252 250 250 249 248 248 248 245 242 240 238 235 231 231 234 236 235 235 236 237 239 240 239 239 239 242 236 218 217 226 224 220 231 240 235 237 246 249 248 254 265 272 273 274 272 268 266 263 259 263 269 266 257 251 248 259 270 274 279 287 293 300 305 305 310 318 321 325 331 335 338 334 330 331 327 327 334 338 342 339 331 327 323
248 248 248 247 248 250 249 247 246 246 246 247 248 247 244 242 239 234 232 233 234 234 235 235 236 237 236 235 236 238 242 244 231 222 228 231 229 236 246 244 240 246 257 260 260 268 278 285 290 288 281 278 276 270 268 272 275 274 269 258 257 266 276 286 295 297 298 300 301 307 316 316 317 320 323 327 328 325 324 326 334 336 333 331 330 324 321 319
245 246 247 245 244 246 247 245 243 244 245 245 247 248 246 242 238 234 232 233 234 232 233 234 236 237 238 238 237 236 239 244 240 233 233 237 236 236 244 251 251 252 261 267 268 273 277 280 285 289 289 288 285 279 274 275 278 281 282 278 274 276 285 297 305 301 296 295 299 305 308 305 308 318 323 325 327 328 328 330 334 333 327 323 322 321 318 314
243 244 244 242 241 243 244 242 240 240 241 241 241 242 243 240 238 236 233 233 234 233 232 232 233 234 236 237 237 235 234 237 240 241 238 237 239 236 239 250 259 261 264 269 275 280 280 278 279 282 283 284 284 283 280 278 277 279 281 282 281 282 285 291 295 294 290 289 293 298 298 298 307 322 328 325 326 330 329 330 333 330 320 315 316 316 313 306
240 241 241 239 237 239 240 239 238 237 239 240 238 239 240 238 237 237 234 233 234 234 233 232 231 232 234 238 239 237 238 241 245 249 248 244 243 239 236 244 257 264 267 270 275 280 279 278 281 283 284 284 285 287 286 282 283 288 292 285 278 278 279 282 284 285 284 286 289 294 298 304 311 321 325 321 321 321 316 318 330 329 315 307 306 307 302 294
238 238 238 237 234 235 237 237 236 236 238 241 240 239 239 238 236 237 236 233 234 236 234 232 231 233 235 240 242 240 239 244 250 253 255 254 251 247 242 245 252 260 266 268 269 271 271 272 276 280 281 281 284 285 285 285 287 295 298 287 277 275 276 279 278 275 275 280 285 291 298 304 308 317 328 327 319 309 301 303 313 314 304 298 295 293 289 283
234 235 235 234 232 233 235 236 235 235 236 239 240 238 238 236 235 236 236 234 235 237 236 232 229 230 233 238 243 243 239 242 246 247 247 248 250 251 251 250 250 253 258 260 259 260 260 260 265 270 272 274 278 281 283 286 288 291 291 285 280 277 275 275 275 274 276 279 281 287 295 298 301 313 329 326 308 295 294 295 293 289 289 290 289 286 281 273
Height
5858 5856 5855 5853 5851 5849 5847 5845 5843 5842 5840 5839 5837 5836 5834 5832 5831 5829 5828 5826 5825 5824 5823 5822 5821 5820 5819 5818 5817 5817 5816 5816 5816 5815 5815 5814 5814 5814 5814 5813 5812 5812 5812 5811 5810 5809 5808 5807 5807 5807 5808 5809 5807 5806 5805 5803 5802 5801 5800 5800 5799 5799 5798 5798 5798 5797 5797 5798 5798 5798 5798 5799 5799 5798 5797 5798 5798 5799 5799 5799 5800 5800 5800 5801 5801 5801 5801 5802
5858 5856 5855 5853 5851 5849 5847 5845 5843 5842 5841 5839 5838 5836 5834 5833 5831 5829 5828 5826 5825 5824 5823 5822 5821 5820 5819 5818 5817 5817 5816 5817 5816 5816 5816 5815 5815 5815 5815 5814 5813 5812 5812 5811 5810 5810 5809 5808 5808 5809 5809 5808 5807 5806 5805 5804 5803 5802 5801 5801 5800 5799 5799 5799 5799 5798 5798 5798 5798 5798 5799 5799 5799 5798 5798 5799 5799 5799 5800 5800 5800 5800 5801 5801 5801 5801 5802 5802
5858 5857 5855 5854 5851 5849 5847 5845 5843 5842 5841 5839 5838 5836 5835 5833 5831 5829 5828 5826 5825 5824 5823 5822 5821 5820 5819 5818 5817 5817 5817 5817 5817 5817 5817 5816 5815 5815 5815 5814 5813 5813 5813 5812 5811 5810 5809 5809 5809 5809 5808 5807 5806 5805 5805 5804 5803 5802 5802 5801 5800 5800 5799 5799 5799 5799 5799 5798 5798 5799 5799 5799 5798 5798 5798 5799 5799 5800 5800 5801 5801 5801 5801 5801 5802 5802 5802 5802
5859 5857 5855 5854 5852 5850 5848 5846 5844 5842 5841 5839 5838 5836 5835 5833 5831 5830 5828 5827 5825 5824 5823 5822 5821 5820 5819 5818 5817 5817 5817 5818 5818 5818 5817 5816 5816 5815 5815 5814 5814 5813 5813 5813 5812 5811 5810 5810 5809 5807 5807 5807 5806 5805 5805 5804 5803 5803 5803 5802 5801 5800 5799 5799 5799 5799 5799 5798 5798 5798 5798 5798 5798 5798 5799 5799 5799 5800 5801 5801 5801 5801 5801 5802 5802 5802 5802 5802
5859 5857 5856 5854 5852 5850 5848 5846 5844 5843 5841 5839 5838 5836 5835 5833 5831 5830 5828 5827 5826 5825 5823 5822 5822 5821 5820 5819 5818 5818 5818 5819 5819 5819 5818 5816 5816 5815 5815 5814 5814 5814 5813 5813 5813 5812 5811 5810 5808 5807 5807 5808 5806 5805 5805 5804 5803 5803 5802 5802 5801 5800 5799 5799 5799 5799 5798 5798 5798 5798 5798 5798 5798 5799 5799 5800 5800 5800 5801 5802 5802 5802 5802 5802 5802 5802 5802 5802
5860 5858 5856 5854 5852 5851 5848 5846 5845 5843 5841 5840 5838 5836 5835 5833 5832 5830 5828 5827 5826 5825 5824 5823 5822 5821 5820 5820 5819 5819 5819 5820 5820 5819 5817 5816 5816 5815 5815 5815 5815 5814 5814 5814 5813 5813 5812 5810 5809 5809 5809 5808 5806 5806 5805 5805 5804 5803 5802 5801 5801 5801 5800 5799 5799 5799 5799 5798 5798 5798 5799 5799 5799 5799 5800 5800 5801 5801 5801 5802 5802 5802 5802 5802 5802 5802 5803 5803
5860 5858 5856 5854 5853 5851 5849 5847 5845 5843 5842 5840 5838 5837 5835 5834 5832 5830 5829 5827 5826 5825 5824 5823 5822 5822 5821 5820 5820 5820 5820 5820 5820 5819 5817 5817 5817 5817 5817 5817 5816 5816 5815 5814 5814 5814 5813 5811 5810 5810 5809 5808 5807 5806 5805 5805 5804 5803 5802 5801 5801 5801 5800 5800 5800 5799 5799 5799 5799 5799 5799 5799 5799 5800 5800 5801 5801 5801 5802 5802 5803 5803 5803 5803 5803 5803 5804 5804
5860 5859 5857 5855 5853 5851 5849 5847 5845 5844 5842 5840 5838 5837 5835 5834 5832 5830 5829 5828 5827 5826 5824 5824 5823 5822 5821 5820 5820 5820 5820 5821 5820 5819 5819 5819 5819 5819 5819 5818 5817 5816 5815 5815 5814 5814 5813 5812 5811 5810 5809 5808 5807 5806 5805 5805 5804 5804 5803 5801 5801 5801 5800 5800 5800 5800 5800 5800 5800 5799 5799 5799 5800 5800 5801 5801 5802 5802 5802 5803 5803 5803 5803 5804 5804 5804 5805 5805
5861 5859 5857 5855 5853 5852 5850 5848 5846 5844 5842 5840 5839 5837 5836 5834 5832 5831 5829 5828 5827 5826 5825 5824 5823 5822 5822 5821 5821 5821 5821 5821 5820 5820 5820 5819 5819 5820 5819 5818 5818 5817 5816 5815 5814 5813 5813 5813 5811 5811 5810 5809 5808 5807 5806 5805 5804 5804 5803 5802 5802 5801 5801 5801 5801 5801 5801 5800 5800 5800 5800 5800 5801 5801 5801 5802 5802 5803 5803 5803 5804 5804 5804 5804 5804 5805 5806 5806
5861 5859 5857 5856 5854 5852 5850 5848 5846 5844 5842 5841 5839 5837 5836 5834 5833 5831 5830 5828 5827 5826 5825 5824 5824 5823 5822 5822 5822 5821 5821 5822 5821 5821 5821 5820 5820 5820 5820 5819 5818 5818 5817 5816 5814 5813 5813 5813 5812 5811 5811 5810 5809 5808 5807 5806 5806 5805 5804 5803 5803 5802 5802 5802 5802 5802 5802 5801 5802 5801 5801 5801 5802 5801 5802 5803 5803 5804 5804 5804 5804 5804 5805 5805 5805 5806 5807 5807
5861 5859 5858 5856 5854 5852 5851 5849 5846 5845 5843 5841 5839 5838 5836 5835 5833 5832 5830 5829 5827 5826 5826 5825 5824 5823 5823 5823 5822 5822 5823 5823 5822 5823 5823 5822 5821 5821 5820 5819 5819 5818 5817 5816 5816 5814 5813 5813 5812 5811 5811 5811 5809 5808 5808 5807 5806 5805 5805 5804 5803 5803 5803 5803 5803 5803 5802 5802 5803 5802 5802 5803 5803 5803 5803 5804 5804 5805 5805 5805 5805 5805 5805 5806 5806 5807 5808 5808
5861 5859 5858 5856 5854 5852 5851 5849 5847 5845 5843 5841 5840 5838 5836 5835 5834 5832 5831 5829 5828 5827 5826 5825 5824 5824 5823 5823 5823 5823 5824 5824 5824 5824 5824 5822 5821 5820 5820 5820 5819 5819 5818 5818 5817 5815 5814 5814 5813 5812 5811 5811 5810 5809 5808 5807 5806 5805 5805 5805 5805 5804 5805 5805 5804 5804 5804 5803 5804 5803 5803 5804 5805 5804 5804 5805 5805 5806 5806 5806 5806 5806 5806 5807 5807 5808 5809 5809
5861 5859 5858 5856 5854 5853 5851 5849 5847 5845 5844 5842 5840 5838 5837 5835 5834 5833 5831 5830 5828 5827 5826 5825 5824 5824 5824 5824 5824 5824 5824 5824 5825 5825 5824 5822 5821 5821 5821 5821 5821 5820 5819 5819 5818 5817 5815 5815 5815 5814 5813 5812 5812 5811 5809 5807 5806 5806 5806 5806 5806 5806 5806 5806 5806 5806 5805 5804 5804 5804 5804 5806 5806 5806 5806 5806 5806 5806 5807 5807 5807 5807 5808 5808 5809 5809 5810 5810
5861 5859 5858 5856 5855 5853 5851 5850 5848 5846 5844 5842 5841 5839 5837 5836 5835 5833 5832 5830 5829 5827 5826 5825 5825 5824 5824 5825 5825 5825 5824 5825 5826 5825 5824 5823 5823 5824 5823 5823 5822 5821 5820 5820 5820 5818 5817 5817 5817 5816 5815 5814 5813 5812 5810 5808 5808 5808 5807 5807 5808 5808 5807 5807 5807 5807 5807 5806 5806 5806 5806 5807 5807 5807 5807 5807 5807 5807 5808 5808 5808 5809 5809 5809 5810 5810 5811 5811
5861 5859 5858 5856 5855 5853 5851 5850 5848 5846 5845 5843 5841 5839 5838 5836 5835 5834 5832 5831 5829 5828 5827 5826 5825 5825 5825 5826 5826 5826 5825 5826 5826 5826 5825 5825 5826 5826 5825 5824 5823 5822 5822 5822 5821 5820 5819 5818 5818 5817 5816 5815 5814 5813 5812 5811 5810 5809 5808 5808 5809 5809 5808 5808 5809 5808 5808 5808 5807 5808 5807 5807 5808 5809 5809 5809 5809 5809 5809 5809 5810 5810 5810 5810 5811 5811 5812 5812
5860 5859 5858 5856 5855 5853 5851 5850 5849 5847 5845 5843 5842 5840 5838 5837 5836 5834 5833 5831 5830 5829 5827 5826 5826 5825 5825 5827 5827 5827 5826 5827 5827 5827 5828 5828 5828 5828 5827 5826 5825 5824 5823 5823 5822 5821 5820 5820 5819 5819 5818 5816 5815 5814 5813 5813 5812 5810 5809 5809 5810 5810 5810 5810 5810 5809 5810 5809 5809 5809 5809 5809 5809 5810 5810 5810 5810 5810 5810 5810 5811 5811 5811 5811 5812 5812 5812 5812
5860 5859 5857 5856 5855 5853 5851 5850 5849 5847 5846 5844 5842 5841 5839 5838 5836 5835 5833 5832 5830 5829 5828 5827 5826 5825 5826 5828 5828 5828 5828 5827 5828 5829 5829 5829 5829 5829 5828 5827 5826 5825 5824 5823 5823 5822 5821 5821 5821 5820 5819 5818 5817 5816 5815 5814 5813 5812 5811 5811 5811 5812 5811 5811 5811 5810 5811 5811 5810 5811 5811 5811 5811 5811 5811 5812 5812 5811 5811 5812 5812 5812 5812 5812 5813 5813 5813 5813
5860 5858 5857 5856 5855 5853 5851 5850 5849 5848 5846 5844 5843 5841 5840 5838 5837 5835 5834 5833 5831 5830 5829 5828 5826 5825 5827 5828 5828 5829 5828 5828 5829 5830 5830 5829 5830 5829 5829 5828 5827 5827 5826 5825 5824 5823 5822 5822 5822 5821 5820 5819 5819 5817 5816 5816 5815 5814 5813 5813 5813 5813 5813 5813 5812 5812 5812 5811 5811 5811 5812 5812 5812 5812 5813 5813 5813 5813 5813 5814 5813 5813 5813 5813 5813 5814 5814 5814
5859 5858 5857 5856 5855 5853 5852 5850 5849 5848 5846 5845 5843 5842 5840 5839 5838 5836 5835 5834 5832 5831 5830 5829 5827 5826 5826 5827 5828 5829 5829 5830 5831 5831 5831 5830 5829 5830 5830 5829 5828 5828 5827 5826 5825 5825 5824 5823 5822 5822 5821 5821 5820 5820 5819 5818 5817 5816 5815 5815 5814 5814 5814 5814 5813 5813 5812 5812 5812 5812 5812 5813 5813 5814 5814 5814 5814 5814 5814 5815 5815 5814 5814 5814 5814 5814 5814 5814
5859 5858 5856 5855 5854 5853 5852 5850 5849 5848 5847 5845 5844 5842 5841 5840 5838 5837 5835 5835 5834 5832 5830 5830 5829 5827 5826 5827 5828 5830 5830 5832 5832 5832 5832 5831 5830 5831 5831 5830 5829 5829 5829 5828 5827 5826 5825 5824 5824 5823 5822 5822 5822 5821 5821 5821 5819 5818 5817 5816 5815 5815 5815 5815 5814 5814 5814 5813 5813 5813 5814 5814 5814 5815 5815 5815 5815 5815 5816 5817 5816 5815 5815 5815 5815 5815 5815 5815
5858 5857 5856 5855 5854 5853 5852 5851 5850 5848 5847 5846 5844 5843 5841 5840 5839 5838 5837 5836 5835 5833 5831 5831 5830 5828 5827 5826 5828 5830 5831 5833 5834 5833 5833 5831 5830 5831 5832 5831 5831 5831 5831 5829 5827 5827 5826 5825 5825 5824 5824 5823 5823 5822 5822 5822 5821 5820 5819 5818 5816 5816 5816 5815 5815 5815 5815 5814 5814 5815 5815 5815 5815 5816 5816 5816 5816 5816 5817 5817 5816 5816 5816 5816 5816 5816 5816 5816
5857 5856 5855 5854 5854 5853 5852 5851 5850 5849 5847 5846 5845 5844 5842 5841 5840 5839 5838 5837 5835 5834 5832 5831 5830 5829 5828 5827 5828 5830 5832 5834 5835 5834 5833 5831 5831 5832 5833 5832 5832 5833 5832 5830 5828 5828 5827 5826 5825 5825 5825 5824 5823 5823 5822 5822 5821 5821 5820 5819 5818 5817 5817 5817 5817 5817 5816 5816 5816 5816 5816 5816 5816 5817 5817 5817 5817 5817 5817 5817 5817 5816 5816 5817 5816 5816 5817 5817
5856 5856 5855 5854 5853 5852 5852 5850 5849 5849 5848 5846 5845 5844 5843 5842 5840 5839 5838 5837 5836 5834 5833 5831 5830 5830 5830 5829 5829 5831 5832 5834 5835 5834 5833 5832 5832 5833 5833 5833 5833 5834 5833 5831 5829 5828 5827 5826 5825 5825 5825 5824 5823 5823 5822 5822 5823 5822 5821 5820 5819 5819 5818 5818 5818 5817 5818 5818 5818 5817 5817 5818 5818 5818 5818 5818 5818 5818 5817 5817 5817 5817 5817 5817 5817 5817 5817 5817
5856 5855 5854 5853 5853 5852 5851 5850 5849 5849 5848 5847 5845 5844 5843 5842 5841 5840 5839 5838 5836 5834 5833 5832 5831 5831 5830 5831 5831 5832 5833 5834 5834 5834 5833 5832 5833 5835 5835 5835 5835 5834 5834 5831 5830 5829 5828 5826 5825 5825 5825 5825 5825 5824 5823 5824 5824 5823 5822 5821 5820 5820 5819 5819 5818 5819 5819 5819 5819 5819 5819 5819 5819 5819 5818 5818 5818 5818 5818 5818 5818 5818 5818 5818 5818 5818 5818 5818
5855 5854 5853 5852 5852 5851 5851 5850 5849 5848 5848 5847 5846 5845 5844 5843 5842 5840 5839 5838 5836 5835 5835 5833 5832 5831 5832 5832 5833 5833 5833 5834 5834 5834 5833 5833 5835 5836 5836 5836 5835 5834 5833 5832 5830 5830 5828 5827 5826 5826 5826 5826 5826 5825 5824 5825 5825 5824 5823 5822 5822 5821 5821 5821 5820 5820 5820 5820 5820 5820 5820 5820 5819 5819 5819 5819 5819 5819 5819 5819 5819 5819 5819 5819 5819 5819 5819 5818
5854 5853 5853 5852 5851 5851 5850 5850 5849 5848 5847 5847 5846 5845 5844 5843 5842 5841 5839 5838 5837 5837 5836 5834 5833 5833 5833 5834 5834 5833 5833 5834 5834 5834 5834 5835 5836 5836 5836 5836 5835 5834 5834 5832 5831 5830 5829 5827 5827 5827 5827 5826 5826 5826 5825 5825 5825 5825 5825 5824 5824 5822 5821 5821 5821 5820 5820 5821 5821 5820 5820 5820 5820 5820 5820 5820 5819 5820 5820 5819 5820 5820 5820 5820 5820 5819 5819 5819
5853 5852 5852 5851 5850 5850 5849 5849 5848 5847 5847 5847 5846 5845 5844 5843 5841 5841 5840 5839 5838 5837 5836 5834 5834 5834 5834 5834 5834 5834 5834 5835 5834 5834 5835 5836 5836 5837 5837 5836 5835 5834 5834 5832 5832 5832 5830 5829 5829 5829 5828 5828 5827 5827 5827 5826 5826 5826 5826 5825 5824 5823 5822 5821 5821 5821 5821 5821 5822 5821 5821 5820 5820 5820 5820 5821 5820 5820 5820 5820 5821 5821 5821 5821 5820 5820 5819 5819
5852 5851 5851 5850 5849 5849 5848 5848 5848 5847 5846 5846 5845 5844 5843 5842 5841 5841 5840 5839 5838 5837 5836 5835 5834 5834 5834 5834 5834 5835 5836 5836 5836 5835 5835 5836 5837 5837 5837 5837 5836 5835 5834 5834 5834 5833 5831 5830 5830 5830 5830 5829 5829 5828 5827 5827 5827 5826 5826 5825 5824 5824 5823 5822 5822 5822 5822 5822 5822 5822 5822 5821 5821 5821 5821 5822 5821 5821 5820 5821 5822 5822 5821 5821 5820 5820 5820 5820
5851 5850 5850 5849 5849 5848 5848 5847 5847 5847 5846 5846 5845 5844 5843 5842 5841 5840 5839 5839 5838 5837 5836 5835 5835 5835 5835 5835 5835 5835 5836 5836 5836 5836 5836 5837 5838 5838 5837 5837 5836 5835 5835 5835 5835 5834 5833 5833 5832 5831 5831 5830 5830 5829 5828 5828 5828 5828 5827 5826 5826 5825 5824 5823 5823 5822 5823 5823 5823 5823 5822 5822 5821 5821 5822 5822 5822 5821 5821 5822 5822 5822 5821 5821 5821 5820 5820 5820
5849 5849 5848 5848 5847 5847 5846 5846 5846 5846 5845 5845 5844 5844 5843 5842 5841 5840 5840 5839 5839 5838 5837 5836 5835 5835 5835 5835 5835 5835 5836 5836 5836 5836 5837 5838 5838 5838 5838 5837 5836 5836 5837 5837 5836 5835 5835 5834 5833 5833 5832 5831 5830 5829 5829 5829 5829 5829 5828 5827 5827 5826 5826 5824 5824 5824 5823 5824 5823 5823 5823 5823 5822 5822 5822 5822 5822 5822 5822 5822 5822 5822 5822 5822 5821 5821 5820 5820
5847 5847 5847 5847 5846 5846 5845 5845 5845 5845 5845 5844 5844 5843 5842 5842 5841 5840 5840 5839 5838 5838 5837 5836 5835 5835 5835 5836 5836 5836 5836 5836 5836 5837 5838 5838 5838 5839 5839 5838 5837 5837 5838 5838 5836 5836 5835 5835 5834 5834 5833 5831 5831 5830 5830 5830 5830 5829 5829 5829 5828 5827 5826 5826 5826 5825 5825 5825 5824 5823 5823 5823 5823 5823 5823 5823 5823 5823 5822 5822 5822 5822 5822 5822 5821 5821 5820 5819
5845 5845 5845 5845 5845 5844 5844 5844 5844 5844 5844 5843 5843 5842 5842 5841 5840 5839 5838 5837 5837 5837 5836 5836 5836 5835 5835 5836 5836 5836 5835 5836 5836 5837 5839 5838 5838 5839 5839 5839 5838 5837 5838 5838 5837 5836 5836 5836 5835 5834 5833 5832 5832 5831 5831 5831 5830 5830 5830 5830 5829 5828 5827 5827 5827 5826 5826 5826 5825 5825 5824 5824 5824 5825 5825 5825 5824 5824 5823 5822 5822 5822 5822 5822 5821 5820 5819 5818
5843 5843 5843 5843 5843 5843 5843 5842 5842 5842 5843 5842 5842 5842 5841 5840 5839 5839 5838 5836 5836 5835 5835 5835 5836 5836 5836 5836 5836 5835 5835 5835 5836 5837 5838 5838 5838 5839 5839 5839 5838 5837 5838 5838 5837 5836 5836 5836 5836 5835 5834 5833 5833 5832 5832 5832 5831 5831 5831 5831 5831 5831 5830 5829 5828 5827 5827 5826 5826 5826 5825 5825 5825 5825 5825 5825 5824 5824 5824 5823 5822 5823 5823 5823 5821 5820 5819 5818
5840 5841 5841 5842 5841 5841 5841 5841 5841 5841 5841 5841 5840 5840 5840 5839 5838 5838 5837 5836 5835 5835 5834 5834 5834 5836 5836 5836 5836 5835 5835 5835 5835 5836 5837 5838 5838 5839 5839 5839 5838 5838 5837 5837 5837 5837 5837 5837 5837 5836 5835 5834 5834 5833 5833 5833 5833 5832 5832 5832 5833 5832 5832 5830 5829 5828 5827 5827 5827 5827 5826 5826 5825 5824 5825 5825 5824 5824 5824 5823 5823 5823 5824 5824 5822 5821 5820 5819
5838 5838 5839 5839 5839 5839 5839 5839 5839 5839 5839 5839 5839 5839 5839 5839 5838 5837 5836 5836 5836 5836 5835 5833 5834 5835 5836 5836 5836 5835 5836 5836 5835 5836 5836 5837 5838 5839 5839 5838 5838 5838 5837 5837 5837 5837 5836 5837 5837 5837 5836 5835 5835 5834 5834 5834 5834 5833 5833 5833 5833 5833 5832 5831 5830 5829 5828 5828 5828 5827 5827 5826 5825 5824 5825 5825 5825 5824 5824 5824 5824 5824 5824 5824 5823 5822 5821 5820
5835 5836 5837 5837 5836 5837 5837 5837 5837 5837 5837 5837 5837 5837 5838 5838 5837 5836 5835 5836 5836 5836 5835 5833 5833 5834 5834 5835 5835 5835 5836 5836 5836 5836 5837 5837 5838 5839 5839 5838 5837 5838 5838 5837 5837 5837 5836 5837 5837 5837 5836 5836 5835 5835 5834 5834 5834 5834 5833 5833 5833 5832 5832 5831 5830 5829 5829 5829 5828 5828 5827 5827 5826 5825 5824 5824 5824 5824 5824 5823 5823 5823 5824 5824 5823 5822 5820 5819
5831 5833 5834 5834 5834 5834 5835 5836 5836 5836 5836 5835 5835 5836 5836 5836 5836 5834 5834 5834 5833 5834 5834 5833 5832 5832 5832 5833 5834 5834 5835 5836 5837 5838 5837 5837 5838 5838 5838 5837 5837 5838 5837 5837 5837 5837 5836 5837 5837 5836 5836 5836 5836 5836 5835 5835 5834 5834 5834 5833 5833 5832 5831 5831 5830 5830 5829 5829 5828 5828 5827 5826 5826 5825 5824 5825 5824 5823 5822 5822 5822 5822 5822 5823 5822 5821 5820 5819
5828 5829 5831 5831 5831 5832 5833 5834 5834 5833 5834 5833 5833 5834 5834 5835 5834 5833 5833 5833 5832 5832 5832 5831 5832 5832 5832 5832 5832 5833 5834 5835 5837 5838 5838 5837 5838 5838 5838 5837 5837 5838 5837 5837 5837 5836 5836 5837 5836 5836 5835 5835 5836 5836 5835 5835 5834 5834 5833 5833 5832 5831 5831 5830 5830 5830 5830 5829 5828 5827 5827 5826 5826 5825 5824 5824 5824 5823 5821 5820 5820 5821 5821 5821 5821 5820 5819 5817
5824 5826 5828 5828 5828 5829 5830 5831 5832 5831 5832 5831 5831 5831 5832 5833 5833 5833 5833 5833 5832 5832 5831 5831 5831 5832 5833 5832 5832 5832 5833 5833 5835 5836 5837 5836 5837 5838 5838 5837 5838 5837 5836 5836 5836 5836 5836 5836 5835 5835 5835 5834 5834 5835 5834 5834 5834 5834 5833 5832 5831 5830 5830 5830 5830 5830 5829 5829 5828 5828 5827 5826 5826 5825 5824 5823 5823 5823 5821 5820 5820 5820 5820 5820 5820 5819 5818 5816
5820 5822 5824 5824 5825 5826 5827 5828 5829 5829 5829 5829 5829 5829 5830 5830 5831 5831 5832 5832 5831 5831 5831 5831 5831 5831 5832 5832 5831 5831 5831 5831 5832 5834 5835 5835 5835 5836 5836 5837 5837 5836 5835 5835 5835 5835 5835 5836 5835 5835 5835 5834 5833 5833 5834 5834 5833 5833 5832 5832 5831 5830 5830 5829 5829 5830 5829 5828 5827 5827 5827 5826 5826 5825 5825 5823 5823 5823 5822 5821 5820 5820 5819 5819 5819 5818 5817 5816
5816 5818 5820 5820 5821 5823 5824 5825 5827 5827 5827 5826 5826 5827 5828 5828 5828 5829 5830 5830 5830 5830 5830 5830 5830 5830 5831 5831 5831 5831 5831 5831 5831 5832 5833 5833 5833 5834 5834 5835 5836 5835 5834 5834 5834 5834 5835 5835 5835 5835 5835 5834 5833 5833 5833 5833 5833 5832 5832 5832 5831 5830 5830 5829 5829 5829 5828 5827 5827 5826 5825 5825 5825 5824 5824 5824 5823 5823 5822 5821 5820 5819 5819 5819 5818 5817 5816 5815
5813 5815 5817 5816 5816 5819 5820 5821 5823 5824 5824 5823 5823 5823 5825 5825 5826 5827 5829 5828 5828 5828 5829 5829 5828 5829 5829 5830 5830 5830 5830 5830 5830 5831 5831 5831 5831 5831 5831 5832 5833 5833 5833 5833 5833 5833 5834 5834 5834 5834 5834 5833 5833 5833 5833 5832 5832 5832 5832 5831 5830 5829 5829 5828 5828 5827 5827 5826 5825 5824 5824 5824 5824 5824 5823 5823 5823 5822 5821 5820 5819 5819 5819 5818 5817 5816 5815 5814
5809 5810 5812 5812 5812 5815 5817 5818 5819 5821 5820 5819 5820 5821 5822 5824 5824 5825 5827 5827 5827 5827 5827 5827 5827 5827 5827 5828 5828 5829 5829 5829 5829 5829 5829 5830 5829 5829 5828 5829 5830 5830 5830 5831 5832 5832 5832 5832 5832 5833 5834 5833 5832 5833 5832 5832 5832 5831 5831 5830 5829 5828 5827 5827 5827 5827 5826 5825 5824 5823 5823 5823 5824 5824 5823 5823 5823 5821 5820 5820 5819 5819 5818 5817 5816 5815 5814 5812
5804 5806 5807 5808 5808 5811 5813 5814 5815 5817 5816 5817 5819 5819 5820 5822 5822 5823 5824 5825 5825 5825 5825 5826 5826 5825 5825 5825 5826 5826 5827 5828 5828 5828 5829 5829 5828 5827 5825 5826 5827 5827 5827 5828 5829 5829 5830 5831 5831 5832 5833 5832 5832 5832 5832 5831 5831 5830 5830 5830 5828 5827 5826 5826 5826 5826 5825 5824 5824 5823 5822 5822 5822 5822 5823 5823 5823 5822 5821 5819 5819 5818 5818 5816 5815 5814 5812 5811
5800 5801 5803 5803 5804 5806 5809 5810 5811 5813 5814 5815 5816 5816 5817 5818 5819 5820 5821 5822 5822 5822 5823 5824 5824 5824 5824 5824 5824 5824 5825 5826 5827 5827 5827 5827 5826 5824 5823 5824 5824 5825 5825 5826 5826 5827 5827 5828 5829 5830 5831 5831 5831 5831 5830 5830 5830 5829 5829 5829 5828 5827 5826 5826 5825 5824 5824 5823 5823 5823 5822 5821 5820 5820 5820 5821 5821 5821 5820 5819 5818 5817 5817 5815 5813 5812 5811 5810
5795 5796 5798 5799 5800 5802 5805 5806 5808 5809 5810 5811 5811 5812 5814 5815 5815 5817 5818 5819 5819 5820 5820 5821 5822 5822 5822 5823 5823 5822 5822 5824 5826 5826 5825 5825 5824 5822 5821 5822 5823 5823 5823 5824 5825 5825 5826 5826 5827 5828 5829 5829 5829 5829 5829 5828 5828 5828 5828 5827 5826 5825 5825 5824 5824 5823 5822 5822 5821 5821 5821 5821 5819 5818 5818 5818 5819 5820 5819 5817 5816 5816 5815 5813 5812 5811 5810 5808
5789 5791 5792 5795 5796 5797 5800 5802 5804 5805 5806 5807 5808 5809 5811 5812 5813 5814 5815 5815 5816 5817 5817 5818 5819 5820 5820 5820 5820 5820 5820 5822 5823 5824 5823 5823 5823 5822 5821 5821 5822 5821 5821 5822 5824 5824 5825 5825 5826 5826 5827 5827 5828 5828 5827 5826 5826 5827 5827 5826 5825 5824 5824 5823 5823 5822 5821 5821 5820 5820 5820 5819 5818 5817 5817 5817 5817 5817 5817 5816 5815 5814 5812 5811 5811 5810 5809 5807
5783 5785 5787 5790 5792 5793 5795 5798 5800 5801 5802 5803 5805 5806 5808 5809 5810 5810 5811 5812 5812 5813 5814 5815 5816 5817 5817 5817 5817 5818 5818 5819 5820 5821 5822 5822 5823 5823 5821 5820 5820 5821 5820 5821 5822 5823 5824 5824 5824 5825 5825 5826 5826 5826 5825 5824 5824 5825 5825 5825 5824 5823 5823 5822 5822 5820 5819 5819 5818 5818 5818 5817 5817 5817 5816 5816 5815 5815 5814 5813 5813 5812 5810 5809 5809 5808 5808 5806
5777 5779 5781 5785 5788 5789 5791 5793 5795 5796 5797 5799 5801 5802 5804 5805 5806 5806 5807 5808 5809 5810 5811 5812 5812 5813 5813 5814 5814 5815 5816 5816 5817 5818 5819 5820 5821 5822 5821 5819 5818 5819 5820 5820 5821 5821 5822 5821 5822 5823 5824 5824 5824 5823 5822 5822 5822 5822 5822 5823 5822 5822 5821 5820 5820 5818 5817 5817 5816 5816 5815 5815 5815 5815 5815 5814 5813 5813 5812 5811 5810 5809 5809 5808 5807 5807 5806 5805
5771 5773 5775 5779 5783 5785 5786 5788 5790 5791 5792 5794 5797 5799 5800 5801 5802 5802 5803 5804 5805 5806 5807 5808 5809 5810 5811 5810 5811 5812 5814 5815 5816 5816 5817 5818 5819 5820 5820 5818 5817 5817 5818 5819 5819 5820 5820 5819 5819 5820 5821 5821 5821 5821 5820 5819 5820 5821 5821 5821 5820 5819 5819 5818 5818 5816 5815 5815 5814 5813 5813 5813 5813 5813 5813 5812 5812 5811 5810 5809 5808 5807 5806 5805 5805 5805 5804 5803
5766 5768 5770 5774 5778 5780 5781 5782 5784 5786 5788 5790 5793 5795 5796 5798 5799 5798 5798 5800 5801 5801 5802 5805 5806 5808 5808 5808 5808 5810 5812 5813 5814 5814 5815 5815 5815 5816 5817 5817 5817 5816 5816 5816 5817 5817 5818 5818 5817 5817 5818 5819 5819 5818 5818 5818 5818 5819 5819 5818 5817 5817 5817 5817 5816 5814 5813 5812 5812 5811 5811 5811 5810 5811 5811 5810 5809 5808 5807 5806 5806 5805 5804 5803 5803 5803 5802 5801
5760 5763 5765 5769 5772 5774 5775 5777 5779 5781 5783 5786 5788 5790 5792 5793 5794 5794 5795 5796 5796 5796 5797 5800 5803 5805 5805 5805 5806 5808 5809 5810 5810 5811 5811 5811 5812 5812 5814 5814 5814 5814 5814 5814 5814 5814 5815 5815 5815 5815 5815 5816 5816 5815 5815 5815 5817 5817 5816 5815 5814 5814 5814 5814 5814 5812 5811 5810 5810 5809 5809 5808 5808 5809 5809 5808 5806 5805 5805 5804 5804 5803 5802 5801 5801 5801 5800 5799